Torna al catalogo

ONEWEB-0261

AttivoComunicazioniPO
NORAD 48979·PAYLOAD·🇬🇧 United Kingdom

Lanciato Jul 1, 2021 da Vostochny Cosmodrome

Loading…

Prossimi Passaggi (prossime 24 ore)

TLE

AggiornatoSource: CelesTrak SupGP

Epoca: Sep 14, 2026, 10:49 UTC

1 48979C 21060N   26257.45084907 -.00001937  00000+0 -50729-2 0  2578
2 48979  87.9135 211.0567 0002242  73.4391  17.7198 13.16594551    15

Traccia ONEWEB-0261 in tempo reale con AllMySat

Download on the App Store